Weather History for Corlu, Turkey

Change the Weather History Date:

Tuesday, March 4, 2014

  Actual Average (LTBA) Record (LTBA)
Temperature  
Mean Temperature 48 °F -  
Max Temperature 53 °F 52 °F 66 °F (1999)
Min Temperature 42 °F 40 °F 32 °F (2013)
Degree Days  
Heating Degree Days 18    
Moisture  
Dew Point 46 °F    
Average Humidity 89    
Maximum Humidity 100    
Minimum Humidity 72    
Precipitation  
Precipitation 0.00 in - - ()
Sea Level Pressure  
Sea Level Pressure 29.58 in    
Wind  
Wind Speed 8 mph ()    
Max Wind Speed 14 mph    
Max Gust Speed -    
Visibility 5.9 miles    
Events Rain    
Averages and records for this station are not official NWS values.
T = Trace of Precipitation, MM = Missing Value Source: Averaged Metar Reports

Daily Weather History Graph

Daily Weather History Graph

Search for Another Location

Airport:

Trip Planner

Search our weather history database for the weather conditions in past years. The results will help you decide how hot, cold, wet, or windy it might be!

Date:

Astronomy

Mar. 04, 2014 Rise Set
Actual Time 6:38 AM EET 6:02 PM EET
Civil Twilight 6:10 AM EET 6:29 PM EET
Nautical Twilight 5:39 AM EET 7:01 PM EET
Astronomical Twilight 5:07 AM EET 7:33 PM EET
Moon 8:09 AM EET (3/4) 9:51 PM EET (3/4)
Length of Visible Light 12h 19m
Length of Day
11h 23m
Waxing Crescent, 12% of the Moon is Illuminated
Mar 4
Waxing Crescent
Mar 8
First Quarter
Mar 16
Full
Mar 24
Last Quarter
Mar 30
New

Hourly Weather History & Observations

Time (EET) Temp. Windchill Dew Point Humidity Pressure Visibility Wind Dir Wind Speed Gust Speed Precip Events Conditions
12:20 AM 50.0 °F - 46.4 °F 87% 29.47 in 6.2 mi NE 10.4 mph - N/A Rain Light Rain Showers
12:50 AM 48.2 °F - 46.4 °F 93% 29.44 in 6.2 mi NE 10.4 mph - N/A Rain Light Rain Showers
1:20 AM 48.2 °F - 46.4 °F 93% 29.47 in 6.2 mi North 5.8 mph - N/A Rain Light Rain Showers
1:38 AM 50.0 °F - 48.2 °F 94% 29.47 in 6.2 mi East 5.8 mph - N/A   Mostly Cloudy
1:50 AM 50.0 °F - 46.4 °F 87% 29.47 in 6.2 mi East 8.1 mph - N/A   Mostly Cloudy
2:20 AM 50.0 °F - 46.4 °F 87% 29.44 in 6.2 mi East 6.9 mph - N/A   Mostly Cloudy
2:50 AM 50.0 °F - 46.4 °F 87% 29.44 in 6.2 mi SE 8.1 mph - N/A   Mostly Cloudy
3:20 AM 48.2 °F - 46.4 °F 93% 29.47 in 6.2 mi Variable 2.3 mph - N/A   Mostly Cloudy
3:50 AM 50.0 °F - 46.4 °F 87% 29.47 in 6.2 mi SSE 5.8 mph - N/A   Mostly Cloudy
4:20 AM 50.0 °F - 46.4 °F 87% 29.47 in 6.2 mi SSE 12.7 mph - N/A   Mostly Cloudy
4:50 AM 50.0 °F - 46.4 °F 87% 29.47 in 6.2 mi SSE 5.8 mph - N/A   Mostly Cloudy
5:20 AM 48.2 °F - 44.6 °F 87% 29.47 in 6.2 mi South 6.9 mph - N/A   Scattered Clouds
5:50 AM 48.2 °F - 44.6 °F 87% 29.47 in 6.2 mi South 6.9 mph - N/A   Scattered Clouds
6:20 AM 48.2 °F - 44.6 °F 87% 29.50 in 6.2 mi SSE 8.1 mph - N/A   Mostly Cloudy
6:50 AM 48.2 °F - 44.6 °F 87% 29.50 in 6.2 mi South 6.9 mph - N/A   Mostly Cloudy
7:20 AM 48.2 °F - 44.6 °F 87% 29.53 in 6.2 mi South 5.8 mph - N/A   Mostly Cloudy
7:50 AM 48.2 °F - 44.6 °F 87% 29.53 in 6.2 mi South 6.9 mph - N/A   Mostly Cloudy
8:20 AM 50.0 °F - 46.4 °F 87% 29.53 in 6.2 mi South 11.5 mph - N/A   Mostly Cloudy
8:50 AM 50.0 °F - 46.4 °F 87% 29.56 in 6.2 mi SSE 10.4 mph - N/A   Mostly Cloudy
9:20 AM 50.0 °F - 44.6 °F 82% 29.56 in 6.2 mi South 11.5 mph - N/A   Mostly Cloudy
9:50 AM 53.6 °F - 44.6 °F 72% 29.56 in 6.2 mi South 13.8 mph - N/A   Mostly Cloudy
10:20 AM 51.8 °F - 44.6 °F 76% 29.56 in 6.2 mi South 13.8 mph - N/A   Mostly Cloudy
10:50 AM 51.8 °F - 44.6 °F 76% 29.59 in 6.2 mi South 11.5 mph - N/A   Mostly Cloudy
11:20 AM 51.8 °F - 44.6 °F 76% 29.59 in 6.2 mi South 12.7 mph - N/A   Mostly Cloudy
11:24 AM 51.8 °F - 44.6 °F 76% 29.59 in 5.0 mi South 13.8 mph - N/A Rain Light Rain Showers
11:50 AM 51.8 °F - 46.4 °F 82% 29.59 in 5.0 mi SSW 10.4 mph - N/A   Mostly Cloudy
12:20 PM 53.6 °F - 44.6 °F 72% 29.59 in 6.2 mi South 13.8 mph - N/A   Mostly Cloudy
12:50 PM 51.8 °F - 46.4 °F 82% 29.59 in 6.2 mi South 13.8 mph - N/A   Mostly Cloudy
1:20 PM 51.8 °F - 46.4 °F 82% 29.59 in 6.2 mi South 11.5 mph - N/A   Mostly Cloudy
1:50 PM 50.0 °F - 46.4 °F 87% 29.62 in 6.2 mi South 11.5 mph - N/A   Mostly Cloudy
2:13 PM 50.0 °F - 48.2 °F 94% 29.62 in 6.2 mi South 10.4 mph - N/A Rain Light Rain Showers
2:20 PM 50.0 °F - 48.2 °F 94% 29.62 in 6.2 mi South 11.5 mph - N/A Rain Light Rain Showers
2:50 PM 50.0 °F - 48.2 °F 94% 29.62 in 3.7 mi South 10.4 mph - N/A Rain Light Rain Showers
3:20 PM 50.0 °F - 48.2 °F 94% 29.62 in 3.7 mi SSE 5.8 mph - N/A Rain Light Rain Showers
3:50 PM 50.0 °F - 48.2 °F 94% 29.62 in 5.0 mi SSE 8.1 mph - N/A   Mostly Cloudy
4:20 PM 50.0 °F - 48.2 °F 94% 29.62 in 6.2 mi SE 6.9 mph - N/A   Mostly Cloudy
4:50 PM 50.0 °F - 48.2 °F 94% 29.62 in 6.2 mi SSE 6.9 mph - N/A   Mostly Cloudy
5:20 PM 50.0 °F - 48.2 °F 94% 29.65 in 6.2 mi SE 6.9 mph - N/A   Scattered Clouds
5:50 PM 50.0 °F - 48.2 °F 94% 29.65 in 6.2 mi SE 5.8 mph - N/A   Scattered Clouds
6:20 PM 48.2 °F - 46.4 °F 93% 29.65 in 6.2 mi ESE 5.8 mph - N/A   Scattered Clouds
6:50 PM 48.2 °F - 46.4 °F 93% 29.68 in 6.2 mi ESE 8.1 mph - N/A   Scattered Clouds
7:20 PM 46.4 °F 43.5 °F 46.4 °F 100% 29.68 in 6.2 mi ESE 5.8 mph - N/A   Scattered Clouds
7:50 PM 44.6 °F 43.1 °F 44.6 °F 100% 29.68 in 6.2 mi Variable 3.5 mph - N/A   Scattered Clouds
8:20 PM 44.6 °F 43.1 °F 44.6 °F 100% 29.71 in 6.2 mi East 3.5 mph - N/A   Scattered Clouds
8:50 PM 44.6 °F - 44.6 °F 100% 29.71 in 6.2 mi Variable 2.3 mph - N/A   Scattered Clouds
9:20 PM 44.6 °F 42.2 °F 42.8 °F 93% 29.71 in 6.2 mi NNE 4.6 mph - N/A   Scattered Clouds
9:50 PM 44.6 °F 41.4 °F 44.6 °F 100% 29.71 in 6.2 mi East 5.8 mph - N/A   Scattered Clouds
10:20 PM 42.8 °F 40.1 °F 42.8 °F 100% 29.71 in 5.0 mi NE 4.6 mph - N/A   Scattered Clouds
10:50 PM 42.8 °F 40.1 °F 42.8 °F 100% 29.71 in 5.0 mi NNE 4.6 mph - N/A   Scattered Clouds
11:20 PM 42.8 °F 41.1 °F 42.8 °F 100% 29.71 in 5.0 mi East 3.5 mph - N/A   Unknown
11:50 PM 46.4 °F 42.4 °F 44.6 °F 93% 29.71 in 5.0 mi ENE 8.1 mph - N/A   Unknown